Regional Weather Roundup
Issued by NWS Newport/Morehead, NC

Current Version | Previous Version | Graphics & Text | Print | Product List | Glossary Off
Versions: 1 2 3 4 5 6 7 8 9 10 11 12 13 14 15 16 17 18 19 20 21 22 23 24 25 26 27 28 29 30 31 32 33 34 35 36 37 38 39 40 41 42 43 44 45 46 47 48 49 50

000
ASUS42 KMHX 040425
RWRMHX
WEATHER ROUNDUP FOR EASTERN NORTH CAROLINA
NATIONAL WEATHER SERVICE NEWPORT/MOREHEAD CITY NC
1100 PM EST SAT DEC 03 2016

NOTE: "FAIR" INDICATES FEW OR NO CLOUDS BELOW 12,000 FEET
WITH NO SIGNIFICANT WEATHER AND/OR OBSTRUCTIONS TO VISIBILITY

NCZ015>017-031-032-045>047-102-103-040500-
NORTH COAST

CITY           SKY/WX    TMP DP  RH WIND       PRES   REMARKS
EDENTON        CLOUDY    45  35  67 CALM      30.29R
ELIZABETH CITY CLOUDY    41  33  73 W6        30.27S
KITTY HAWK     PTCLDY    46  38  73 NW5       30.25S
MANTEO         PTCLDY    47  34  60 N7        30.26S

$$

NCZ045>047-081-094-103-104-040500-
CENTRAL COAST

CITY           SKY/WX    TMP DP  RH WIND       PRES   REMARKS
FRISCO         PTCLDY    49  33  54 CALM      30.26R

$$

NCZ095-097-098-100-101-040500-
SOUTHERN COAST

CITY           SKY/WX    TMP DP  RH WIND       PRES   REMARKS
BEAUFORT       CLOUDY    48  40  73 VRB6      30.28R
CEDAR ISLAND   NOT AVBL
JACKSONVILLE   CLOUDY    45  39  79 W3        30.29R
PINEY ISLAND   PTCLDY   N/A N/A N/A N6        30.27R
WILMINGTON     CLOUDY    46  38  73 NW5       30.29R


$$

NCZ011>013-027>030-043-044-078>080-089-090>093-098-040500-
COASTAL PLAIN

CITY           SKY/WX    TMP DP  RH WIND       PRES   REMARKS
AHOSKIE        CLOUDY    38  35  91 CALM      30.30R
CLINTON          N/A     46  37  68 CALM      30.29F HAZE
ELIZABETHTOWN  CLOUDY    46  37  70 CALM      30.27F
GOLDSBORO      CLOUDY    44  40  85 CALM      30.27S
GREENVILLE     MOCLDY    41  39  93 CALM      30.29S
HAVELOCK       CLOUDY    43  37  79 W3        30.29R
KENANSVILLE    CLOUDY    43  39  87 CALM      30.29S
KINSTON          N/A     43  38  84 CALM      30.30S
NEW BERN       CLOUDY    43  38  82 CALM      30.30R
RICHLANDS      CLOUDY    42  40  92 CALM      30.29R
ROCKY MOUNT    CLOUDY    42  38  85 CALM      30.30R
WASHINGTON     MOCLDY    41  36  80 CALM      30.29S
WHITEVILLE     CLOUDY    45  42  89 CALM      30.28S

$$

AMZ130-135-150-152-154-156-158-170-250-252-270-ANZ085-086-088-633-658-670-040500-
MARINE OBSERVATIONS

STATION/POSITION TIME  TEMP    WIND        PRES    WAVE   SWELL
                       AIR SEA DIR/SP/G            HT/PER HT/PER
                 (UTC) (F)     (DEG/KT/KT) (MB)    (FT/S) (FT/S)
CHESAPEAKE LIGHT NOT AVBL
64 E VA BEACH    0350   51 60  340/ 19/ 23 1022.9    7/ 7
DUCK             0400   47 56  310/ 10/ 11 1024.0
2 E DUCK         NOT AVBL
OREGON INLET     0400   47 55  320/  8/ 11 1024.4
13E OREGON INLT  0400      60                N/A     5/ 6   3/ 6
HATTERAS CG      0400   51 58  350/ 13/ 15 1024.4
DIAMOND BUOY     0350   53 75  360/ 14/ 17 1024.3    6/ 9   5/ 9
CAPE LOOKOUT     0400   50     340/  7/  9 1025.0
BEAUFORT LAB     0400   49 56  340/  4/  6 1024.2
30 SE NEW RVR IN 0408   54 71   10/  6/ 12 1025.4
30 SE NEW RVR IN NOT AVBL
27 SE WRIGHTSVLE 0408   54 69  360/  8/ 14 1025.0
5 SE WRIGHTSVLE  0408   49 63  340/ 12/ 17 1025.2
225 S CAPE HAT   0350   63 73   20/  6/ 10 1021.8    6/ 7   5/ 7
41 SE CHARLESTON 0350   58 74   20/ 12/ 17 1024.4    3/ 8   2/ 8

$$



USA.gov is the U.S. government's official web portal to all federal, state and local government web resources and services.